Date,TemperatureHighF,TemperatureAvgF,TemperatureLowF,DewpointHighF,DewpointAvgF,DewpointLowF,HumidityHigh,HumidityAvg,HumidityLow,PressureMaxIn,PressureMinIn,WindSpeedMaxMPH,WindSpeedAvgMPH,GustSpeedMaxMPH,PrecipitationSumIn
2013-10-1,52,45,41,-100,-100,-100,0,0,100,0.00,40.00,0,-999,0,0.00
2013-10-2,54,46,38,-100,-100,-100,0,0,100,0.00,40.00,0,-999,0,0.00
2013-10-3,47,39,28,-100,-100,-100,0,0,100,0.00,40.00,0,-999,0,0.01
2013-10-4,27,20,14,-100,-100,-100,0,0,100,0.00,40.00,0,-999,0,0.04
2013-10-5,32,24,16,-100,-100,-100,0,0,100,0.00,40.00,0,-999,0,0.01
2013-10-6,45,34,23,-100,-100,-100,0,0,100,0.00,40.00,0,-999,0,0.00
2013-10-7,53,42,32,-100,-100,-100,0,0,100,0.00,40.00,0,-999,0,0.01
2013-10-8,50,42,36,-100,-100,-100,0,0,100,0.00,40.00,0,-999,0,0.01
2013-10-9,45,40,34,-100,-100,-100,0,0,100,0.00,40.00,0,-999,0,0.01
2013-10-10,44,40,35,-100,-100,-100,0,0,100,0.00,40.00,0,-999,0,0.00
2013-10-11,30,29,28,-100,-100,-100,0,0,100,0.00,40.00,0,-999,0,0.07
2013-10-12,37,30,23,-100,-100,-100,0,0,100,0.00,40.00,0,-999,0,0.01
2013-10-13,45,37,29,-100,-100,-100,0,0,100,0.00,40.00,0,-999,0,0.00
2013-10-21,32,30,28,-100,-100,-100,0,0,100,0.00,40.00,0,-999,0,0.00
2013-10-22,43,33,29,-100,-100,-100,0,0,100,0.00,40.00,0,-999,0,0.00
2013-10-23,45,34,29,-100,-100,-100,0,0,100,0.00,40.00,0,-999,0,0.00
2013-10-24,47,40,35,-100,-100,-100,0,0,100,0.00,40.00,0,-999,0,0.00
2013-10-25,38,33,32,-100,-100,-100,0,0,100,0.00,40.00,0,-999,0,0.00
2013-10-26,46,39,30,-100,-100,-100,0,0,100,0.00,40.00,0,-999,0,0.03
2013-10-27,43,38,32,-100,-100,-100,0,0,100,0.00,40.00,0,-999,0,0.00
2013-10-28,43,39,36,-100,-100,-100,0,0,100,0.00,40.00,0,-999,0,0.00
2013-10-29,38,30,26,-100,-100,-100,0,0,100,0.00,40.00,0,-999,0,0.00
2013-10-30,26,25,23,-100,-100,-100,0,0,100,0.00,40.00,0,-999,0,0.00
2013-10-31,25,24,19,-100,-100,-100,0,0,100,0.00,40.00,0,-999,0,0.00